• Join FlightAware (Why Join?)
  • Login
  • US Flag GB Flag 
00:29 EDT


 

Airport Tracker/Info


-or-


 

Live Flight TrackerFlight Track Log ✈ JBU24 ✈ 19-May-2013 ✈ KJFK - KSYR

Flight Track Log - Related Links

Times and Time Zones

All times are in EDT time to prevent confusion due to time zone crossing. See the JBU24 flight status page for this flight to view local times or setup timezone preferences in your user account.

Time Position Orientation Groundspeed Altitude Reporting Facility
EDT Latitude Longitude Course Direction KTS MPH feet Rate Location/Type
19:36 40.6000 -73.8000 316° Northwest 155 178 2,100  Level New York TRACON
19:37 40.5667 -73.7667 143° Southeast 211 243 3,700 2,220 Climbing New York TRACON
19:38 40.6000 -73.7000 57° Northeast 271 312 6,600 3,060 Climbing New York TRACON
19:39 40.8695 -74.0958 311° West  Level FlightAware Approximate
19:39 40.6667 -73.6167 43° Northeast 301 346 9,900  Level New York TRACON
19:40 40.9274 -74.1805 316° Northwest  Level FlightAware Approximate
19:40 40.7500 -73.6000 North 330 380 11,700  Level New York TRACON
19:41 40.9894 -74.2601 316° Northwest  Level FlightAware Approximate
19:42 40.9322 -73.6769 342° North 316 364 17,000  Level New York Center
19:43 40.9961 -73.7842 308° West 329 379 17,000  Level New York Center
19:44 41.0417 -73.8797 302° West 349 402 17,000  Level New York Center
19:45 41.0775 -74.0136 290° West 344 396 17,000  Level New York Center
19:46 41.1078 -74.1197 291° West 344 396 17,000  Level New York Center
19:47 41.1436 -74.2536 290° West 350 403 17,000  Level New York Center
19:48 41.1694 -74.3597 288° West 350 403 17,000 180 Level New York Center
19:49 41.2050 -74.4939 289° West 350 403 17,400 1,020 Climbing New York Center
19:50 41.2392 -74.5978 294° West 350 403 19,100 2,100 Climbing New York Center
19:51 41.3103 -74.7125 310° West 354 407 21,700 1,440 Climbing New York Center
19:52 41.3753 -74.8214 309° West 368 423 22,000 120 Climbing New York Center
19:53 41.4406 -74.9275 309° West 378 435 22,000  Level New York Center
19:54 41.5053 -75.0342 309° West 384 442 22,000  Level New York Center
19:55 41.5703 -75.1408 309° West 384 442 22,000  Level New York Center
19:56 41.6347 -75.2506 308° West 384 442 22,000  Level New York Center
19:57 41.6994 -75.3578 309° West 384 442 22,000  Level New York Center
19:58 41.7639 -75.4678 308° West 384 442 22,000  Level New York Center
19:59 41.8303 -75.5783 309° West 384 442 22,000  Level New York Center
20:00 41.8925 -75.6858 308° West 379 436 22,000  Level New York Center
20:01 41.9586 -75.7939 309° West 379 436 22,000  Level New York Center
20:02 42.0206 -75.9047 307° West 379 436 22,000 -480 Level New York Center
20:03 42.0844 -76.0158 308° West 379 436 21,100 -1,440 Descending New York Center
20:04 42.1550 -76.1136 314° West 379 436 19,100 -1,980 Descending New York Center
20:05 42.2542 -76.1303 353° North 340 391 17,200 -2,100 Descending New York Center
20:06 42.3156 -76.1214 North 363 418 15,900 -2,100 Descending Boston Center
20:07 42.4078 -76.1072 North 358 412 14,200 -1,920 Descending Boston Center
20:08 42.5019 -76.0986 North 348 400 12,300 -1,740 Descending Boston Center
20:09 42.5983 -76.0875 North 340 391 10,800 -1,380 Descending Boston Center
20:10 42.6797 -76.0836 North 296 341 9,600 -1,440 Descending Boston Center
20:11 42.7583 -76.1025 350° North 279 321 7,900 -1,560 Descending Boston Center
20:12 42.8322 -76.1353 342° North 276 318 6,500 -1,560 Descending Boston Center
20:13 42.8997 -76.1733 338° Northwest 272 313 5,000 -840 Descending Boston Center
20:14 42.9694 -76.2086 340° North 272 313 5,000 -900 Level Boston Center
20:15 43.0414 -76.2417 341° North 269 310 3,200 -1,320 Descending Boston Center
20:16 43.1044 -76.2911 330° Northwest 253 291 2,400 -420 Descending Boston Center
20:17 43.1553 -76.3311 330° Northwest 201 231 2,400  Level Boston Center